This demonstration page uses our WeatherBlox Daily Observations layout. Learn more.

39.92423, -83.80882

Hourly Observations for April 20, 2015

Temp ( °F °C ) Dew Point ( °F °C ) Humidity (%) Winds ( mph kmh ) Pressure ( in mb ) Visibility ( mi km ) Precip ( " mm )
12:03 am 00:03 Cloudy with Mist and Fog 63 17 63 17 100 100 S 9 15 29.44 997 6 9.65604 0 0
12:56 am 00:56 Cloudy 63 17.2 62 16.6 96 96 SSW 16 26 29.41 996 7 11.26538 0 0
1:37 am 01:37 Cloudy with Mist and Fog 63 17 61 16 94 94 SSW 16 26 29.44 997 6 9.65604 0 0
1:56 am 01:56 Cloudy with Mist and Fog 62 16.6 60 15.5 93 93 SSW 22 35 29.41 996 6 9.65604 0 0
2:23 am 02:23 Mostly Cloudy 63 17 57 14 83 83 SW 22 35 29.44 997 7 11.26538 0 0
2:31 am 02:31 Cloudy 63 17 57 14 83 83 SW 22 35 29.44 997 7 11.26538 0 0
2:56 am 02:56 Cloudy 61 16.1 57 13.8 86 86 SW 18 30 29.41 996 8 12.87472 0 0
3:56 am 03:56 Cloudy 60 15.5 56 13.3 87 87 SW 15 24 29.43 997 7 11.26538 0 0
4:56 am 04:56 Mostly Cloudy 59 15 55 12.7 86 86 SW 16 26 29.45 997 8 12.87472 0 0
5:56 am 05:56 Cloudy 59 15 55 12.7 86 86 SSW 17 28 29.45 997 7 11.26538 0 0
6:32 am 06:32 Mostly Cloudy 57 14 55 13 94 94 SSW 12 19 29.47 998 7 11.26538 0 0
6:56 am 06:56 Mostly Cloudy 58 14.4 56 13.3 93 93 S 8 13 29.44 997 7 11.26538 0 0
7:18 am 07:18 Cloudy with Mist and Fog 57 14 57 14 100 100 S 10 17 29.44 997 6 9.65604 0 0
7:30 am 07:30 Cloudy with Mist and Fog 59 15 57 14 94 94 S 10 17 29.44 997 6 9.65604 0 0
7:56 am 07:56 Cloudy with Mist and Fog 59 15 57 13.8 93 93 S 13 20 29.43 997 5 8.0467 0 0
8:03 am 08:03 Cloudy with Mist and Fog 59 15 57 14 94 94 SSW 13 20 29.44 997 1.75 2.816345 0 0
8:11 am 08:11 Mostly Cloudy with Mist and Fog 59 15 57 14 94 94 SSW 13 20 29.44 997 2 3.21868 0 0
8:13 am 08:13 Cloudy with Mist and Fog 59 15 57 14 94 94 SSW 12 19 29.44 997 3 4.82802 0 0
8:43 am 08:43 Cloudy with Mist and Fog 61 16 57 14 88 88 SSW 14 22 29.44 997 5 8.0467 0 0
8:56 am 08:56 Cloudy with Mist and Fog 59 15 56 13.3 90 90 SSW 20 31 29.43 997 4 6.43736 0 0
9:49 am 09:49 Cloudy with Rain 59 15 55 13 88 88 SW 18 30 29.47 998 2 3.21868 0.02 0.508
9:56 am 09:56 Cloudy with Heavy Rain 58 14.4 56 13.3 93 93 SW 20 31 29.44 997 1 1.60934 0.03 0.762
10:00 am 10:00 Cloudy with Rain 57 14 55 13 94 94 SW 22 35 29.44 997 1.5 2.41401 0 0.0254
10:04 am 10:04 Mostly Cloudy with Rain 57 14 55 13 94 94 SSW 21 33 29.44 997 3 4.82802 0 0.0254
10:56 am 10:56 Mostly Cloudy with Mist and Fog 60 15.5 57 13.8 90 90 SSW 20 31 29.44 997 6 9.65604 0.01 0.254
11:35 am 11:35 Mostly Cloudy with Haze 61 16 55 13 83 83 SW 21 33 29.47 998 6 9.65604 0 0
11:56 am 11:56 Mostly Cloudy 61 16.1 55 12.7 80 80 SW 24 39 29.47 998 7 11.26538 0 0
12:32 pm 12:32 Mostly Cloudy with Haze 61 16 54 12 77 77 WSW 21 33 29.5 999 6 9.65604 0 0
12:56 pm 12:56 Mostly Cloudy 62 16.6 54 12.2 75 75 SW 20 31 29.47 998 7 11.26538 0 0
1:15 pm 13:15 Mostly Cloudy with Mist and Fog 57 14 54 12 88 88 WSW 24 39 29.53 1000 2.5 4.02335 0 0
1:26 pm 13:26 Mostly Cloudy with Mist and Fog 57 14 54 12 88 88 WSW 26 43 29.53 1000 5 8.0467 0 0.0254
1:56 pm 13:56 Mostly Cloudy 60 15.5 53 11.6 78 78 WSW 22 35 29.51 999 7 11.26538 0 0.0254
2:56 pm 14:56 Mostly Cloudy 58 14.4 51 10.5 78 78 W 20 31 29.53 1000 7 11.26538 0 0
3:56 pm 15:56 Mostly Cloudy with Haze 58 14.4 49 9.4 72 72 WSW 28 44 29.55 1001 6 9.65604 0 0
4:56 pm 16:56 Cloudy with Haze 55 12.7 45 7.2 69 69 WSW 21 33 29.58 1002 6 9.65604 0 0
5:56 pm 17:56 Cloudy with Haze 55 12.7 44 6.6 67 67 WSW 22 35 29.59 1002 6 9.65604 0 0
6:56 pm 18:56 Cloudy with Haze 53 11.6 43 6.1 69 69 W 18 30 29.62 1003 6 9.65604 0 0
7:56 pm 19:56 Cloudy with Haze 52 11.1 40 4.4 64 64 W 16 26 29.65 1004 6 9.65604 0 0
8:56 pm 20:56 Mostly Clear 50 10 38 3.3 63 63 W 16 26 29.67 1005 8 12.87472 0 0
9:56 pm 21:56 Partly Cloudy 49 9.4 37 2.7 63 63 W 16 26 29.7 1006 8 12.87472 0 0
10:56 pm 22:56 Mostly Clear 47 8.3 37 2.7 68 68 W 21 33 29.73 1007 8 12.87472 0 0
11:56 pm 23:56 Clear 46 7.7 37 2.7 71 71 W 13 20 29.74 1007 8 12.87472 0 0

Powered by AerisWeather